Corpus Christi, TX

3:36 AM CDT on April 23, 2018 (GMT -0500)
Corpus Christi International

Weather History for KCRP - June, 2014

Change the Weather History Date:

Monday, June 23, 2014

  Actual Average Record
Temperature  
Mean Temperature 87 °F 83 °F  
Max Temperature 94 °F 92 °F 98 °F (1990)
Min Temperature 79 °F 75 °F 67 °F (2008)
Degree Days  
Heating Degree Days 0 0  
Month to date heating degree days 0 0  
Since 1 June heating degree days 0 0  
Since 1 July heating degree days 1145 898  
Cooling Degree Days 22 18  
Month to date cooling degree days 465 394  
Year to date cooling degree days 1271 1235  
Since 1 June cooling degree days 465 394  
Growing Degree Days 36 (Base 50)    
Moisture  
Dew Point 74 °F    
Average Humidity 72    
Maximum Humidity 91    
Minimum Humidity 52    
Precipitation  
Precipitation T in 0.12 in 2.87 in (1960)
Month to date precipitation 0.02 2.52  
Year to date precipitation 7.12 12.79  
Snow  
Snow 0.00 in - - ()
Month to date snowfall 0.0  
Since 1 June snowfall 0.0  
Since 1 July snowfall T  
Snow Depth 0.00 in    
Sea Level Pressure  
Sea Level Pressure 29.89 in    
Wind  
Wind Speed 17 mph (SSE)    
Max Wind Speed 30 mph    
Max Gust Speed 36 mph    
Visibility 10 miles    
Events Rain    
T = Trace of Precipitation, MM = Missing Value Source: NWS Daily Summary

Daily Weather History Graph

Daily Weather History Graph

Search for Another Location

Airport or City:

Astronomy

Jun. 23, 2014 Rise Set
Actual Time 6:35 AM CDT 8:29 PM CDT
Civil Twilight 6:08 AM CDT 8:55 PM CDT
Nautical Twilight 5:36 AM CDT 9:28 PM CDT
Astronomical Twilight 5:02 AM CDT 10:02 PM CDT
Moon 3:48 AM CDT 5:22 PM CDT
Length of Visible Light 14h 47m
Length of Day
13h 54m
Waning Crescent, 13% of the Moon is Illuminated
Jun 23
Waning Crescent
Jun 27
New
Jul 5
First Quarter
Jul 12
Full
Jul 18
Last Quarter

Hourly Weather History & Observations

Time (CDT) Temp. Heat Index Dew Point Humidity Pressure Visibility Wind Dir Wind Speed Gust Speed Precip Events Conditions
12:51 AM 81.0 °F 87.3 °F 75.9 °F 85% 29.86 in 10.0 mi SSE 20.7 mph - 0.00 in Rain Light Rain
1:51 AM 81.0 °F 87.3 °F 75.9 °F 85% 29.84 in 10.0 mi SSE 21.9 mph 31.1 mph 0.00 in   Overcast
2:47 AM 80.6 °F 86.2 °F 75.2 °F 84% 29.85 in 10.0 mi South 19.6 mph - N/A   Overcast
2:51 AM 81.0 °F 87.3 °F 75.9 °F 85% 29.84 in 10.0 mi South 19.6 mph - N/A   Overcast
3:45 AM 80.6 °F 86.2 °F 75.2 °F 84% 29.85 in 10.0 mi South 19.6 mph 27.6 mph N/A   Overcast
3:51 AM 81.0 °F 87.3 °F 75.9 °F 85% 29.84 in 10.0 mi South 19.6 mph 27.6 mph N/A   Overcast
3:58 AM 81.0 °F 87.3 °F 75.9 °F 85% 29.85 in 10.0 mi SSE 19.6 mph - N/A   Overcast
4:51 AM 81.0 °F 87.3 °F 75.9 °F 85% 29.85 in 10.0 mi SSE 18.4 mph - 0.00 in Rain Light Rain
5:31 AM 81.0 °F 87.3 °F 75.9 °F 85% 29.85 in 10.0 mi South 17.3 mph - 0.00 in   Overcast
5:51 AM 81.0 °F 87.3 °F 75.9 °F 85% 29.86 in 10.0 mi SSE 17.3 mph - 0.00 in   Overcast
6:09 AM 81.0 °F 87.3 °F 75.9 °F 85% 29.86 in 10.0 mi SSE 16.1 mph - N/A   Scattered Clouds
6:51 AM 81.0 °F 87.3 °F 75.9 °F 85% 29.86 in 10.0 mi SSE 13.8 mph - N/A   Overcast
7:51 AM 82.0 °F 89.4 °F 75.9 °F 82% 29.88 in 10.0 mi SSE 15.0 mph - N/A   Overcast
8:51 AM 82.9 °F 90.2 °F 75.0 °F 77% 29.91 in 10.0 mi South 18.4 mph - N/A   Mostly Cloudy
9:51 AM 84.0 °F 91.2 °F 73.9 °F 72% 29.92 in 10.0 mi South 21.9 mph - N/A   Mostly Cloudy
10:51 AM 89.1 °F 99.1 °F 75.0 °F 63% 29.93 in 10.0 mi South 18.4 mph 24.2 mph N/A   Mostly Cloudy
11:51 AM 91.0 °F 99.3 °F 73.0 °F 55% 29.93 in 10.0 mi SSE 23.0 mph 27.6 mph N/A   Mostly Cloudy
12:51 PM 91.0 °F 99.3 °F 73.0 °F 55% 29.93 in 10.0 mi SSE 19.6 mph - N/A   Mostly Cloudy
1:51 PM 91.9 °F 99.5 °F 72.0 °F 52% 29.93 in 10.0 mi SSE 23.0 mph 28.8 mph N/A   Mostly Cloudy
2:51 PM 90.0 °F 96.9 °F 72.0 °F 55% 29.91 in 10.0 mi SE 19.6 mph - N/A   Mostly Cloudy
3:51 PM 89.1 °F 96.0 °F 72.0 °F 57% 29.91 in 10.0 mi SSE 20.7 mph - N/A   Mostly Cloudy
4:51 PM 91.0 °F 99.3 °F 73.0 °F 55% 29.89 in 10.0 mi SSE 20.7 mph - N/A   Scattered Clouds
5:51 PM 90.0 °F 96.9 °F 72.0 °F 55% 29.85 in 10.0 mi SE 24.2 mph 31.1 mph N/A   Mostly Cloudy
6:51 PM 88.0 °F 93.8 °F 71.1 °F 57% 29.86 in 10.0 mi SSE 18.4 mph - N/A   Mostly Cloudy
7:51 PM 84.0 °F 89.6 °F 72.0 °F 67% 29.89 in 10.0 mi SSE 15.0 mph - N/A   Mostly Cloudy
8:51 PM 82.0 °F 87.9 °F 73.9 °F 76% 29.91 in 10.0 mi SSE 13.8 mph - N/A   Mostly Cloudy
9:51 PM 80.6 °F 86.2 °F 75.2 °F 84% 29.94 in 10.0 mi SE 10.4 mph - N/A   Mostly Cloudy
10:51 PM 80.6 °F 86.2 °F 75.2 °F 84% 29.96 in 10.0 mi SSE 9.2 mph - N/A   Scattered Clouds
11:51 PM 79.0 °F - 75.0 °F 88% 29.97 in 10.0 mi SSE 8.1 mph - N/A   Scattered Clouds